www.pogodaiklimat.ru

Погода и климат >> Архив погоды >> Южная Африка >> Кейп-Пойнт


ПОГОДА на Кейп-Пойнт

  • Прогноз погоды на Кейп-Пойнт
  • Монитор погоды на Кейп-Пойнт

АРХИВ ПОГОДЫ на Кейп-Пойнт

Время (UTC), дата Ветер
(напр.,м/с)
 
Видим.   Явления Облачность Т
(С)
Тd
(С)
f
(%)
Тe
(С)
Тes
(С)
Комфортность P
(гПа)
Po
(гПа)
Тmin
(С)
Tmax
(С)
R
(мм)
R24
(мм)
S
(см)
15 14.07 З 8 н/о н/о +13.4 +8.7 73 +11 +11 1019.3 992.1 +13.3 +14.7
18 14.07 З 8 н/о н/о +11.3 +8.0 80 +8 +8 1021.2 993.7 +11.3 +14.7
21 14.07 З 7 н/о н/о +10.9 +8.3 84 +8 +8 1021.7 994.2 +10.9 +14.7
00 15.07 СЗ 5 н/о н/о +11.6 +9.6 88 +9 +9 1021.8 994.3 +10.9 +14.7
06 15.07 СЗ 5 н/о н/о +11.2 +9.6 90 +8 +8 1022.5 995.0 +9.9
09 15.07 С 6 н/о н/о +13.1 +10.3 83 +11 +11 1023.1 995.7 +9.9 +13.6
12 15.07 СЗ 1 н/о н/о +18.0 +11.6 66 +19 +19 1021.4 994.5 +9.9 +18.0
15 15.07 З 5 н/о н/о +13.9 +10.9 82 +12 +12 1021.1 993.9 +13.9 +18.4
18 15.07 Ю 6 н/о н/о +12.5 +11.0 91 +10 +10 1021.3 993.9 +12.4 +18.4
21 15.07 СВ 2 н/о н/о +12.6 +11.8 95 +12 +12 1021.0 993.6 +12.4 +18.4
00 16.07 В 11 н/о н/о +11.6 +10.6 94 +7 +7 1019.3 991.9 +11.6 +18.4
03 16.07 СВ 5 н/о н/о +11.0 +10.0 94 +8 +8 1018.0 990.6 +11.0 +18.4
06 16.07 СЗ 6 н/о н/о +12.6 +8.5 76 +10 +10 1018.1 990.8 +10.8
09 16.07 З 4 н/о н/о +13.2 +11.2 88 +11 +11 1020.0 992.7 +10.8 +13.6
12 16.07 СЗ 4 н/о н/о +15.7 +11.7 77 +15 +15 1018.7 991.7 +10.8 +15.9
15 16.07 СЗ 6 н/о н/о +14.1 +10.3 78 +12 +12 1018.6 991.4 +13.4 +17.0
18 16.07 СЗ 8 н/о н/о +12.6 +9.4 81 +10 +10 1018.6 991.3 +12.6 +17.0
21 16.07 СЗ 9 н/о н/о +11.9 +9.9 88 +8 +8 1018.6 991.2 +11.6 +17.0
00 17.07 С 9 н/о н/о +11.8 +10.3 91 +8 +8 1018.3 990.9 +11.5 +17.0
03 17.07 С 9 н/о н/о +11.0 +9.7 92 +7 +7 1017.9 990.5 +11.0 +17.0
06 17.07 С 9 н/о н/о +11.2 +9.7 90 +7 +7 1018.1 990.7 +10.9
09 17.07 С 14 н/о н/о +13.6 +9.8 78 +10 +10 1019.4 992.2 +10.9 +14.2
12 17.07 С 11 н/о н/о +13.9 +10.5 80 +11 +11 1018.3 991.1 +10.9 +14.7
15 17.07 С 14 н/о н/о +13.3 +10.6 84 +10 +10 1017.5 990.3 +13.2 +14.7
18 17.07 С 15 н/о н/о +13.4 +11.1 86 +10 +10 1018.0 990.8 +12.7 +14.7
21 17.07 С 14 н/о н/о +13.8 +11.8 88 +10 +10 1017.9 990.7 +12.7 +14.7
00 18.07 С 14 н/о н/о +13.8 +12.2 90 +10 +10 1017.7 990.5 +12.7 +14.7
03 18.07 С 15 н/о н/о +13.9 +12.4 91 +10 +10 1016.7 989.6 +12.7 +14.7
06 18.07 С 15 н/о н/о +13.6 +12.8 95 +10 +10 1016.7 989.5 +12.7
09 18.07 СЗ 15 н/о н/о +13.3 +12.8 97 +9 +9 1018.1 990.9 +12.7 +13.7
12 18.07 СЗ 12 н/о н/о +14.7 +13.5 93 +12 +12 1016.6 989.6 +12.7 +14.9 0.4
15 18.07 СЗ 13 н/о н/о +14.1 +13.1 94 +11 +11 1016.2 989.1 +14.1 +15.4
18 18.07 СЗ 14 н/о н/о +13.6 +12.9 96 +10 +10 1015.5 988.4 +13.6 +15.4 1
21 18.07 З 15 н/о н/о +12.3 +12.1 99 +8 +8 1016.8 989.5 +12.0 +15.4
00 19.07 З 14 н/о н/о +12.4 +9.4 82 +8 +8 1017.3 990.0 +11.8 +15.4 3
03 19.07 ЮЗ 13 н/о н/о +10.4 +7.6 83 +6 +6 1018.0 990.5 +9.8 +15.4
06 19.07 ЮЗ 5 н/о н/о +10.1 +7.0 81 +7 +7 1020.3 992.7 +9.1 4
09 19.07 ЮЗ 5 н/о н/о +9.5 +6.7 83 +6 +6 1023.2 995.5 +8.4 +10.8
12 19.07 ЮЗ 7 н/о н/о +10.0 +5.9 76 +6 +6 1023.2 995.5 +8.4 +11.1 1
15 19.07 Ю 7 н/о н/о +9.9 +4.7 70 +6 +6 1024.5 996.8 +9.1 +11.1
18 19.07 В 2 н/о н/о +9.0 +4.0 71 +7 +7 1026.3 998.5 +9.0 +11.1 1
21 19.07 В 2 н/о н/о +9.1 +1.5 59 +8 +8 1027.7 999.8 +8.3 +11.1
00 20.07 СВ 1 н/о н/о +8.3 +2.3 66 +8 +8 1028.9 1000.9 +8.0 +11.1 1
03 20.07 С 3 н/о н/о +8.5 +3.1 69 +6 +6 1028.4 1000.5 +7.1 +11.1
06 20.07 СВ 2 н/о н/о +8.4 +3.4 71 +7 +7 1030.0 1002.0 +7.1 1
09 20.07 СВ 5 н/о н/о +11.8 +3.1 55 +10 +10 1031.6 1003.9 +7.1 +11.8
12 20.07 В 5 н/о н/о +12.0 +5.6 65 +10 +10 1030.1 1002.4 +7.1 +13.7
15 20.07 В 8 н/о н/о +10.3 +4.9 69 +7 +7 1029.4 1001.6 +10.3 +13.7
18 20.07 В 13 н/о н/о +9.1 +5.4 78 +4 +4 1028.1 1000.2 +9.1 +13.7
21 20.07 В 16 н/о н/о +8.0 +4.6 79 +2 +2 1025.9 998.0 +8.0 +13.7
00 21.07 В 10 н/о н/о +8.0 +4.0 76 +3 +3 1025.8 997.9 +7.8 +13.7
03 21.07 В 5 н/о н/о +8.0 +4.2 77 +5 +5 1023.9 996.0 +7.8 +13.7
06 21.07 СВ 5 н/о н/о +8.5 +5.4 81 +5 +5 1022.4 994.6 +7.8
09 21.07 СВ 4 н/о н/о +14.0 +7.3 64 +13 +13 1020.4 993.2 +7.8 +14.0
12 21.07 С 4 н/о н/о +17.3 +1.4 34 +17 +17 1017.0 990.2 +7.8 +17.5

 

Местоположение метеостанции Кейп-Пойнт (Южная Африка): широта -34.35 долгота 18.50 высота над уровнем моря 238 м.

В архиве по умолчанию представлена погода на Кейп-Пойнт за последнюю неделю. Архивные данные за месяц целиком и за предыдущие месяцы, начиная с января 2011 года, Вы можете получить, выбрав интересующий диапазон дат из раскрывающегося списка и нажав кнопку "Ввод!".


*Определитесь, кто Вы:
робот инопланетянин человек

Внимание! Время в таблицах - всемирное. Для получения местного времени необходимо прибавить поправку, которая равна 2 ч.

Смотрите также архив погоды в соседних городах и на ближайших метеорологических станциях:

Погода на Слангкопе (Южная Африка) (28 км)
Погода в Странде (Южная Африка) (40 км)
Погода в Кейптауне аэропорту (Южная Африка) (44 км)
Погода в Кейптауне аэропорту АМС (Южная Африка) (44 км)
Погода в Кейптауне (Южная Африка) (46 км)
Погода в Йестерпланте (Южная Африка) (50 км)
Погода в Кейптаун порту (Южная Африка) (50 км)
Погода на Роббенэйланде (Южная Африка) (62 км)
Погода в Херманусе (Южная Африка) (67 км)
Погода в Парле (Южная Африка) (82 км)

Пояснения к столбцам:

Ветер - указаны скорость ветра в м/с - средняя за 10 мин, порывы в срок и между сроками (в фигурных скобках) и направление, откуда дует ветер: С - северный, СВ - северо-восточный, В - восточный, ЮВ - юго-восточный, Ю - южный, ЮЗ - юго-западный, З - западный, СЗ - северо-западный.
Видимость - горизонтальная дальность видимости в метрах или километрах. При видимости от 1 до 10 км при отсутствии осадков обычно наблюдается дымка, при ухудшении видимости до 1 км и менее - туман. В сухую погоду видимость может ухудшаться дымом, пылью или мглою.
Явления - указаны атмосферные явления, наблюдавшиеся в срок или в последний час перед сроком; фигурными скобками обозначены явления, наблюдавшиеся между сроками (за 1-3 часа до срока); квадратными скобками обозначены град или гололедные отложения с указанием их диаметра в мм.
Облачность - указаны через наклонную черту общая и нижняя облачность в баллах и высота нижней границы облаков в метрах; квадратными скобками обозначены формы облаков: Ci - перистые, Cs - перисто-слоистые, Cc - перисто-кучевые, Ac - высококучевые, As - высокослоистые, Sc - слоисто-кучевые, Ns - слоисто-дождевые, Cu - кучевые, Cb - кучево-дождевые. Подробнее классификацию облаков см. в Атласе облаков (PDF).
T - Температура воздуха - температура, измеренная на высоте 2 м над землей.
Td - Температура точки росы - температура, при понижении до которой содержащийся в воздухе водяной пар достигнет насыщения.
f - Относительная влажность воздуха - влажноcть воздуха, измеренная на высоте 2 м над землей.
Te - Эффективная температура - температура, которую ощущает одетый по сезону человек в тени. Характеристика душности погоды. При расчете учитывается влияние влажности воздуха и скорости ветра на теплоощущения человека.
Tes - Эффективная температура на солнце - температура, которую ощущает человек, с поправкой на солнечный нагрев. Характеристика знойности погоды. Зависит от высоты солнца над горизонтом, облачности и скорости ветра. Ночью, в пасмурную погоду, а также при ветре 12 м/с и более поправка равна нулю.
P - Атмосферное давление - приведенное к уровню моря атмосферное давление.
Po - Атмосферное давление - измеренное на уровне метеостанции атмосферное давление.
Tmin - Минимальная температура - минимум температуры воздуха на высоте 2 м над землей.
Tmax - Максимальная температура - максимум температуры воздуха на высоте 2 м над землей.
R - Количество осадков - Количество выпавших осадков за период времени, мм. При наведении курсора мыши на число - период времени, за который выпало указанное количество осадков.
R24 - Количество осадков - Количество выпавших осадков за 24 часа, мм.
S - Снежный покров - Высота снежного покрова, см. При наведении курсора мыши на число - состояние снежного покрова и степень покрытия местности в баллах.